[[{"header":{"parameterUnit":"m.s-1","parameterCategory":1,"la1":30.2991,"la2":30.254,"lo1":-89.0895,"lo2":-89.0444,"dy":0.0017,"dx":0.0017,"nx":28,"ny":28,"refTime":"2023-10-15T09:00:00:Z","depth":0,"parameterNumber":2,"parameterNumberName":"U-component_of_WINDS"},"data":[0,0,0,0,0,0,0,0,0,0,0,0,0,0,0,0,0,0,0,0,0,0,0,0,0,0,0,0,0,0,0,0,0,0,0,0,0,0,0,0,0,0,0,0,0,0,0,0,0,0,0,0,0,0,0,0,0,0,1.3017,1.3016,0,1.2982,1.2982,1.2981,1.296,1.296,1.296,1.296,1.2923,1.2922,1.2921,0,0,0,0,0,0,0,0,0,0,0,0,0,1.3065,1.3064,1.3017,1.3016,1.3016,1.2982,1.2982,1.2981,1.296,1.296,1.296,1.296,1.2923,1.2922,1.2921,0,0,0,0,0,0,0,0,0,0,0,0,0,1.3038,1.3064,1.3017,1.3002,1.3,1.2982,1.2982,1.2981,1.296,1.296,1.296,1.296,1.2924,1.2922,1.2921,1.2915,0,0,1.2917,1.2916,0,0,0,0,0,0,0,0,1.304,1.3036,1.3004,1.3003,1.3001,1.2975,1.2985,1.2959,1.296,1.2975,1.296,1.296,1.294,1.2938,1.2931,1.2914,1.2912,1.2917,1.2916,1.2915,1.2915,0,0,0,0,0,0,0,1.3042,1.3038,1.3003,1.3004,1.3002,1.2996,1.2992,1.298,1.2959,1.2974,1.2972,1.2969,1.2939,1.2933,1.293,1.2912,1.2917,1.2916,1.2915,1.2914,1.2889,1.2889,0,0,0,0,0,0,1.3046,1.304,1.3004,1.3002,1.302,1.2996,1.2991,1.2984,1.2959,1.2955,1.2969,1.2968,1.2935,1.2932,1.2929,1.2921,1.2915,1.2914,1.2913,1.2889,1.2889,1.2889,0,0,0,0,0,0,1.3047,1.3043,1.3005,1.302,1.3015,1.2995,1.2987,1.2983,1.2976,1.2955,1.2951,1.2966,1.2935,1.2931,1.2919,1.292,1.2914,1.2912,1.2888,1.2889,1.2889,1.2906,0,0,0,0,0,0,1.3049,1.3044,1.3041,1.302,1.3014,1.2996,1.2987,1.2982,1.2974,1.2973,1.2951,1.2948,1.2935,1.2922,1.2918,1.2918,1.2911,1.2888,1.2888,1.2889,1.2905,1.2906,1.2908,0,0,0,0,0,1.305,1.3047,1.3041,1.3037,1.3011,1.2996,1.2993,1.2978,1.2974,1.2972,1.2959,1.2948,1.2921,1.292,1.2916,1.2916,1.2888,1.2888,1.2889,1.2904,1.2906,1.2908,0,0,0,0,0,0,1.3067,1.3044,1.3037,1.3027,1.3014,1.2993,1.2989,1.298,1.2968,1.2967,1.2949,1.2944,1.2934,1.2924,1.2924,1.291,1.2903,1.2903,1.2917,1.2918,1.2919,1.2922,1.291,0,0,0,0,0,1.307,1.306,1.304,1.3033,1.3027,1.3009,1.3002,1.2992,1.2978,1.2972,1.2958,1.2944,1.2932,1.2925,1.2913,1.2904,1.2899,1.2902,1.2903,1.2904,1.2904,1.2899,1.29,1.289,1.289,1.289,0,0,1.3075,1.3061,1.3055,1.3036,1.3025,1.3015,1.3005,1.2995,1.2987,1.297,1.2959,1.2948,1.2932,1.2922,1.2916,1.2913,1.2906,1.2904,1.2906,1.2904,1.2899,1.29,1.2901,1.289,1.289,1.289,0,0,1.3079,1.3067,1.306,1.305,1.3033,1.3022,1.3021,1.3001,1.2994,1.2982,1.297,1.2961,1.2941,1.293,1.2921,1.2923,1.2914,1.292,1.2927,1.2922,1.2923,1.2924,1.2924,1.2925,1.292,1.292,1.292,0,1.3087,1.3072,1.3058,1.3049,1.3041,1.3026,1.3019,1.3009,1.299,1.2984,1.2981,1.2956,1.2944,1.2932,1.2932,1.2926,1.2924,1.2922,1.2924,1.2925,1.2925,1.2926,1.2926,1.2921,1.2921,1.2921,1.292,0,1.3083,1.3073,1.3069,1.3051,1.3043,1.3035,1.302,1.3013,1.3004,1.2994,1.2982,1.2968,1.2953,1.2949,1.294,1.2936,1.2934,1.2928,1.2921,1.2927,1.2927,1.2927,1.2922,1.2922,1.2921,1.2921,0,0,1.3094,1.307,1.3069,1.3061,1.3043,1.3035,1.3027,1.3013,1.3008,1.2995,1.2988,1.2973,1.2967,1.2958,1.2948,1.2944,1.2947,1.2938,1.2937,1.294,1.2942,1.2946,1.2947,1.2941,1.2941,1.2941,1.2943,0,1.3095,1.308,1.3068,1.3057,1.3048,1.3035,1.3028,1.3017,1.3007,1.2998,1.2987,1.2976,1.2969,1.2964,1.296,1.2947,1.2947,1.2947,1.2934,1.2934,1.2938,1.2947,1.2951,1.2954,1.2943,1.2943,1.2943,0,1.3094,1.3083,1.3072,1.3056,1.3051,1.3045,1.3032,1.3024,1.301,1.3004,1.2994,1.2984,1.2975,1.2971,1.2958,1.2959,1.2953,1.2946,1.2946,1.2943,1.2938,1.2944,1.2954,1.2954,1.2943,1.2943,1.2943,0,1.3104,1.3086,1.3077,1.3071,1.3052,1.3048,1.304,1.3027,1.302,1.3008,1.3004,1.2991,1.2985,1.2976,1.2963,1.296,1.2952,1.2946,1.2946,1.2946,1.2943,1.2944,1.2952,1.2941,1.2941,1.2941,1.2941,0,1.3106,1.31,1.3082,1.3076,1.3069,1.3055,1.3048,1.3039,1.3028,1.302,1.3008,1.3002,1.2985,1.2977,1.2967,1.2958,1.2955,1.295,1.2947,1.295,1.2951,1.2945,1.2945,1.2941,1.2941,1.2941,1.2941,0,1.3115,1.3103,1.3092,1.3076,1.3071,1.3067,1.3052,1.3047,1.3037,1.3028,1.3025,1.301,1.2999,1.2986,1.2971,1.2964,1.2957,1.2953,1.2961,1.2959,1.296,1.296,1.2965,1.2965,1.2954,1.2954,1.2955,0,1.3117,1.3112,1.3095,1.3089,1.3082,1.3073,1.3066,1.3053,1.3046,1.3032,1.3028,1.3017,1.3007,1.2991,1.2978,1.2967,1.2962,1.2965,1.2961,1.2964,1.2962,1.2962,1.2962,1.2966,1.2966,1.2966,1.2966,0,1.3121,1.3116,1.3106,1.3095,1.3088,1.3078,1.3068,1.3064,1.3049,1.3042,1.3032,1.3024,1.301,1.2999,1.2987,1.2978,1.297,1.2968,1.2967,1.297,1.2975,1.2972,1.2964,1.2967,1.2967,1.2967,1.2967,1.2967,1.3126,1.3122,1.3109,1.31,1.3091,1.3082,1.3076,1.3066,1.3058,1.3045,1.3038,1.3028,1.3016,1.2998,1.2991,1.2983,1.2979,1.2978,1.2978,1.2978,1.2979,1.2977,1.298,1.298,1.298,1.298,1.298,0,1.313,1.3122,1.3113,1.31,1.3093,1.3086,1.3075,1.3069,1.3061,1.3051,1.3042,1.303,1.302,1.3007,1.2996,1.2992,1.2988,1.299,1.299,1.2988,1.2982,1.2984,1.2993,1.2993,1.2993,1.2993,1.2993,1.2993,1.3131,1.3123,1.3116,1.3104,1.3095,1.3086,1.308,1.3072,1.3064,1.3052,1.3043,1.3035,1.3024,1.3013,1.3003,1.3,1.2996,1.2999,1.2995,1.2989,1.2988,1.2987,1.2988,1.2999,1.2999,1.3001,1.3001,1.3001]},{"header":{"parameterUnit":"m.s-1","parameterCategory":1,"la1":30.2991,"la2":30.254,"lo1":-89.0895,"lo2":-89.0444,"dy":0.0017,"dx":0.0017,"nx":28,"ny":28,"refTime":"2023-10-15T09:00:00:Z","depth":0,"parameterNumber":3,"parameterNumberName":"V-component_of_WINDS"},"data":[0,0,0,0,0,0,0,0,0,0,0,0,0,0,0,0,0,0,0,0,0,0,0,0,0,0,0,0,0,0,0,0,0,0,0,0,0,0,0,0,0,0,0,0,0,0,0,0,0,0,0,0,0,0,0,0,0,0,-8.1984,-8.1987,0,-8.2273,-8.2276,-8.2279,-8.2208,-8.2203,-8.2197,-8.2192,-8.2481,-8.2493,-8.2506,0,0,0,0,0,0,0,0,0,0,0,0,0,-8.1364,-8.1376,-8.1983,-8.1987,-8.1991,-8.2272,-8.2276,-8.228,-8.2209,-8.2202,-8.2196,-8.2189,-8.2476,-8.2492,-8.2507,0,0,0,0,0,0,0,0,0,0,0,0,0,-8.1641,-8.138,-8.1983,-8.199,-8.1993,-8.2271,-8.2276,-8.2281,-8.2211,-8.2202,-8.2194,-8.2186,-8.2471,-8.249,-8.2509,-8.2797,0,0,-8.2568,-8.2577,0,0,0,0,0,0,0,0,-8.1625,-8.1664,-8.1985,-8.199,-8.1994,-8.2196,-8.2164,-8.2454,-8.2213,-8.2128,-8.2192,-8.2182,-8.2392,-8.2418,-8.249,-8.281,-8.2823,-8.257,-8.2582,-8.259,-8.2596,0,0,0,0,0,0,0,-8.1606,-8.1651,-8.2098,-8.199,-8.1995,-8.1976,-8.2006,-8.2218,-8.2303,-8.2135,-8.213,-8.2166,-8.2393,-8.2472,-8.2496,-8.2827,-8.257,-8.2587,-8.2599,-8.2606,-8.3398,-8.3407,0,0,0,0,0,0,-8.1584,-8.1635,-8.2088,-8.2106,-8.1786,-8.1994,-8.2028,-8.214,-8.2301,-8.2318,-8.2173,-8.2161,-8.2443,-8.2474,-8.2506,-8.2855,-8.259,-8.2608,-8.2619,-8.3389,-8.34,-8.341,0,0,0,0,0,0,-8.1571,-8.1626,-8.2077,-8.187,-8.1926,-8.2014,-8.214,-8.215,-8.2228,-8.233,-8.2344,-8.2238,-8.2437,-8.2479,-8.2726,-8.2864,-8.2617,-8.2634,-8.3378,-8.3392,-8.3405,-8.3553,0,0,0,0,0,0,-8.1554,-8.1621,-8.1733,-8.1873,-8.1937,-8.2294,-8.2148,-8.2161,-8.2263,-8.2251,-8.2395,-8.241,-8.2434,-8.2697,-8.2745,-8.2886,-8.265,-8.3366,-8.3384,-8.3401,-8.3536,-8.3571,-8.36,0,0,0,0,0,-8.1532,-8.1761,-8.1739,-8.1794,-8.2079,-8.2302,-8.2339,-8.2363,-8.2274,-8.2386,-8.2451,-8.2406,-8.2841,-8.2723,-8.2776,-8.2925,-8.3357,-8.3379,-8.3399,-8.3522,-8.3564,-8.3599,0,0,0,0,0,0,-8.1632,-8.178,-8.1757,-8.2038,-8.2159,-8.229,-8.2432,-8.2406,-8.2553,-8.2535,-8.2557,-8.259,-8.2843,-8.2908,-8.2775,-8.3212,-8.3086,-8.3118,-8.3161,-8.3201,-8.3232,-8.3212,-8.2666,0,0,0,0,0,-8.1687,-8.1858,-8.1977,-8.2214,-8.2276,-8.2344,-8.2442,-8.2451,-8.2575,-8.2625,-8.2708,-8.2829,-8.2993,-8.31,-8.3256,-8.3545,-8.3575,-8.3673,-8.3705,-8.373,-8.3759,-8.3917,-8.3963,-8.348,-8.348,-8.3479,0,0,-8.1802,-8.1904,-8.201,-8.2237,-8.2331,-8.2506,-8.2387,-8.2577,-8.2707,-8.2653,-8.2893,-8.2958,-8.3094,-8.3363,-8.3486,-8.3425,-8.3899,-8.3758,-8.3777,-8.3792,-8.3944,-8.399,-8.403,-8.3494,-8.3492,-8.3489,0,0,-8.2102,-8.2196,-8.2405,-8.2503,-8.2648,-8.2692,-8.2742,-8.2878,-8.2921,-8.3162,-8.3126,-8.3278,-8.356,-8.3659,-8.3746,-8.4085,-8.4049,-8.4135,-8.4301,-8.4455,-8.4494,-8.4527,-8.4649,-8.4693,-8.4162,-8.4163,-8.4163,0,-8.2226,-8.2491,-8.2515,-8.271,-8.281,-8.2772,-8.2983,-8.3076,-8.3264,-8.3333,-8.3263,-8.3617,-8.3705,-8.3998,-8.4081,-8.4153,-8.421,-8.4119,-8.4487,-8.4521,-8.4553,-8.4669,-8.4715,-8.4172,-8.4171,-8.417,-8.4169,0,-8.2637,-8.2822,-8.2972,-8.3159,-8.3276,-8.3477,-8.353,-8.3645,-8.3644,-8.3695,-8.3941,-8.4046,-8.4224,-8.4293,-8.4292,-8.4587,-8.4545,-8.4481,-8.4354,-8.4608,-8.4718,-8.4763,-8.4186,-8.4183,-8.418,-8.4178,0,0,-8.3009,-8.3207,-8.3262,-8.3346,-8.3504,-8.3646,-8.3845,-8.4022,-8.4121,-8.4251,-8.4419,-8.4659,-8.4601,-8.47,-8.471,-8.4845,-8.5108,-8.4764,-8.4768,-8.4826,-8.544,-8.5489,-8.5541,-8.5085,-8.5093,-8.51,-8.543,0,-8.3324,-8.3679,-8.3706,-8.4025,-8.4196,-8.4162,-8.4336,-8.445,-8.4503,-8.4654,-8.471,-8.4881,-8.4791,-8.4851,-8.4983,-8.5049,-8.5232,-8.5025,-8.524,-8.5248,-8.5209,-8.5598,-8.565,-8.5956,-8.5472,-8.548,-8.5485,0,-8.3739,-8.3886,-8.4223,-8.4359,-8.4431,-8.4587,-8.4752,-8.4897,-8.5026,-8.5054,-8.5166,-8.5158,-8.5361,-8.5226,-8.5507,-8.5365,-8.5454,-8.55,-8.5512,-8.5534,-8.5383,-8.5632,-8.6054,-8.6101,-8.5553,-8.5547,-8.5542,0,-8.3979,-8.426,-8.4499,-8.4572,-8.4735,-8.4846,-8.4918,-8.5039,-8.5144,-8.5287,-8.5355,-8.5518,-8.5608,-8.5734,-8.5769,-8.5668,-8.6049,-8.5917,-8.6079,-8.6078,-8.6161,-8.6156,-8.6606,-8.6217,-8.6216,-8.6215,-8.6214,0,-8.4329,-8.4537,-8.4609,-8.4756,-8.4987,-8.5016,-8.5243,-8.5309,-8.5417,-8.5575,-8.5554,-8.5702,-8.5739,-8.5893,-8.5921,-8.615,-8.619,-8.6218,-8.6224,-8.6222,-8.6219,-8.6282,-8.6262,-8.6227,-8.6224,-8.6222,-8.622,0,-8.4636,-8.4693,-8.4951,-8.5085,-8.5124,-8.5289,-8.5403,-8.5543,-8.5593,-8.5793,-8.5841,-8.5919,-8.6101,-8.6148,-8.6363,-8.6382,-8.6652,-8.6636,-8.661,-8.661,-8.677,-8.6755,-8.7277,-8.7347,-8.691,-8.6914,-8.6918,0,-8.4857,-8.5017,-8.5169,-8.5275,-8.5353,-8.5523,-8.5631,-8.5664,-8.5777,-8.5937,-8.6058,-8.6237,-8.6382,-8.6673,-8.6747,-8.6912,-8.6901,-8.7073,-8.6925,-8.6919,-8.6906,-8.6897,-8.6913,-8.7101,-8.7105,-8.7109,-8.7112,0,-8.5243,-8.5264,-8.5421,-8.559,-8.572,-8.5853,-8.598,-8.6067,-8.6118,-8.6246,-8.6432,-8.6545,-8.6767,-8.6945,-8.7112,-8.7184,-8.7158,-8.7158,-8.7204,-8.7205,-8.7184,-8.7199,-8.6688,-8.7146,-8.7143,-8.714,-8.7138,-8.7137,-8.5515,-8.5656,-8.5787,-8.5963,-8.6063,-8.6183,-8.6323,-8.6391,-8.6548,-8.6734,-8.6742,-8.6945,-8.707,-8.7292,-8.7373,-8.7531,-8.7479,-8.7546,-8.7563,-8.758,-8.7595,-8.7158,-8.7561,-8.756,-8.7559,-8.7559,-8.7558,0,-8.5902,-8.5984,-8.6147,-8.6328,-8.6466,-8.6431,-8.6571,-8.6688,-8.6868,-8.6988,-8.7132,-8.7347,-8.752,-8.7608,-8.778,-8.7889,-8.7881,-8.7933,-8.7926,-8.7943,-8.763,-8.7574,-8.7937,-8.7937,-8.7937,-8.7936,-8.7936,-8.7936,-8.612,-8.6357,-8.6393,-8.668,-8.676,-8.6961,-8.7044,-8.7155,-8.7251,-8.7493,-8.7637,-8.7695,-8.7802,-8.7981,-8.8138,-8.8159,-8.8223,-8.8282,-8.8297,-8.8004,-8.7965,-8.7928,-8.7876,-8.8296,-8.8296,-8.8598,-8.86,-8.8603]}]]